This is the latest recevied weather packets stored in our database for station/object AB4KY. If no packets are shown the sender has not sent any weather packets the latest 10 day(s).
| Time | Temp. | Humidity | Pressure | Rain* | Wind** | Luminosity | Snow |
|---|---|---|---|---|---|---|---|
| 1777611449 | 6.67° C | 90% | 1012.9 hPa | 0 mm | - | 0 W/m² | - |
| 1777611146 | 6.67° C | 90% | 1013 hPa | 0 mm | - | 0 W/m² | - |
| 1777610841 | 7.22° C | 90% | 1012.9 hPa | 0 mm | - | 0 W/m² | - |
| 1777610537 | 7.78° C | 89% | 1013 hPa | 0 mm | - | 0 W/m² | - |
| 1777610231 | 8.33° C | 86% | 1012.7 hPa | 0 mm | - | 0 W/m² | - |
| 1777609929 | 8.33° C | 81% | 1012.9 hPa | 0 mm | - | 0 W/m² | - |
| 1777609625 | 8.33° C | 78% | 1012.9 hPa | 0 mm | - | 0 W/m² | - |
| 1777609322 | 7.22° C | 87% | 1012.9 hPa | 0 mm | - | 0 W/m² | - |
| 1777609020 | 7.22° C | 89% | 1012.9 hPa | 0 mm | - | 0 W/m² | - |
| 1777608716 | 7.22° C | 90% | 1013.1 hPa | 0 mm | - | 0 W/m² | - |
| 1777608413 | 7.22° C | 90% | 1013 hPa | 0 mm | - | 0 W/m² | - |
| 1777608111 | 6.67° C | 91% | 1013 hPa | 0 mm | - | 0 W/m² | - |
| 1777607808 | 6.67° C | 92% | 1013.2 hPa | 0 mm | - | 0 W/m² | - |
| 1777607504 | 7.22° C | 91% | 1013.3 hPa | 0 mm | - | 0 W/m² | - |
| 1777607200 | 7.22° C | 90% | 1013.3 hPa | 0 mm | - | 0 W/m² | - |
| 1777606896 | 7.22° C | 90% | 1013.3 hPa | 0 mm | - | 0 W/m² | - |
| 1777606592 | 7.22° C | 89% | 1013.5 hPa | 0 mm | - | 0 W/m² | - |
| 1777606287 | 7.22° C | 88% | 1013.6 hPa | 0 mm | - | 0 W/m² | - |
| 1777605983 | 7.22° C | 88% | 1013.5 hPa | 0 mm | - | 0 W/m² | - |
| 1777605679 | 7.22° C | 88% | 1013.5 hPa | 0 mm | - | 0 W/m² | - |
| 1777605378 | 7.22° C | 88% | 1013.7 hPa | 0 mm | - | 0 W/m² | - |
| 1777605075 | 7.22° C | 88% | 1013.6 hPa | 0 mm | - | 0 W/m² | - |
| 1777604771 | 7.22° C | 87% | 1013.7 hPa | 0 mm | - | 0 W/m² | - |
| 1777604468 | 7.78° C | 86% | 1013.6 hPa | 0 mm | - | 0 W/m² | - |
| 1777604168 | 8.33° C | 85% | 1013.9 hPa | 0 mm | - | 0 W/m² | - |
* Rain latest hour (hover to see other rain measurements)
** Current wind speed in m/s (hover to see current wind gust speed)